Torna al catalogo

FENGYUN 1C DEB

AttivoSSO
NORAD 32411·DEBRIS·🇨🇳 China

Lanciato May 10, 1999 da Taiyuan Satellite Launch Center

Loading…

Prossimi Passaggi (prossime 24 ore)

TLE

AggiornatoSource: Space-Track

Epoca: Sep 13, 2026, 00:11 UTC

1 32411U 99025CZX 26256.00775093  .00000310  00000-0  18529-3 0  9990
2 32411  98.4180 161.7808 0122645 312.8651  46.2270 14.10170629696799

Traccia FENGYUN 1C DEB in tempo reale con AllMySat

Download on the App Store